TimeCST,TemperatureF,Dew PointF,Humidity,Sea Level PressureIn,VisibilityMPH,Wind Direction,Wind SpeedMPH,Gust SpeedMPH,PrecipitationIn,Events,Conditions,WindDirDegrees,DateUTC
12:15 AM,37.4,32.0,81,30.25,10.0,NE,5.8,-,N/A,,Clear,40,2013-01-22 06:15:00
12:35 AM,37.4,32.0,81,30.26,10.0,North,6.9,-,N/A,,Clear,10,2013-01-22 06:35:00
12:55 AM,37.4,32.0,81,30.25,10.0,NNE,5.8,-,N/A,,Partly Cloudy,30,2013-01-22 06:55:00
1:35 AM,37.4,32.0,81,30.27,10.0,North,5.8,-,N/A,,Scattered Clouds,10,2013-01-22 07:35:00
1:55 AM,37.4,30.2,75,30.27,10.0,NNE,5.8,-,N/A,,Scattered Clouds,30,2013-01-22 07:55:00
2:15 AM,37.4,30.2,75,30.27,10.0,NNE,5.8,-,N/A,,Partly Cloudy,20,2013-01-22 08:15:00
2:35 AM,37.4,30.2,75,30.28,10.0,North,6.9,-,N/A,,Scattered Clouds,10,2013-01-22 08:35:00
2:55 AM,37.4,30.2,75,30.28,10.0,NNE,6.9,-,N/A,,Scattered Clouds,20,2013-01-22 08:55:00
3:15 AM,37.4,30.2,75,30.28,10.0,North,4.6,-,N/A,,Partly Cloudy,10,2013-01-22 09:15:00
3:35 AM,37.4,30.2,75,30.28,10.0,NNE,4.6,-,N/A,,Mostly Cloudy,20,2013-01-22 09:35:00
3:55 AM,37.4,30.2,75,30.28,10.0,NNE,4.6,-,N/A,,Scattered Clouds,20,2013-01-22 09:55:00
4:15 AM,37.4,30.2,75,30.29,10.0,NNE,4.6,-,N/A,,Mostly Cloudy,30,2013-01-22 10:15:00
4:35 AM,37.4,30.2,75,30.29,10.0,NE,5.8,-,N/A,,Mostly Cloudy,50,2013-01-22 10:35:00
4:55 AM,37.4,28.4,70,30.29,10.0,NE,5.8,-,N/A,,Partly Cloudy,50,2013-01-22 10:55:00
5:15 AM,37.4,28.4,70,30.30,10.0,NE,4.6,-,N/A,,Clear,40,2013-01-22 11:15:00
5:35 AM,37.4,28.4,70,30.31,10.0,NE,5.8,-,N/A,,Partly Cloudy,50,2013-01-22 11:35:00
5:55 AM,37.4,26.6,65,30.32,10.0,NE,5.8,-,N/A,,Scattered Clouds,40,2013-01-22 11:55:00
6:15 AM,37.4,26.6,65,30.32,10.0,ENE,8.1,-,N/A,,Mostly Cloudy,60,2013-01-22 12:15:00
6:35 AM,37.4,26.6,65,30.33,10.0,NE,5.8,-,N/A,,Partly Cloudy,50,2013-01-22 12:35:00
6:55 AM,37.4,26.6,65,30.33,10.0,ENE,6.9,-,N/A,,Partly Cloudy,60,2013-01-22 12:55:00
7:15 AM,35.6,26.6,70,30.35,10.0,ENE,5.8,-,N/A,,Clear,60,2013-01-22 13:15:00
7:35 AM,35.6,26.6,70,30.35,10.0,ENE,5.8,-,N/A,,Clear,70,2013-01-22 13:35:00
7:55 AM,37.4,26.6,65,30.35,10.0,East,3.5,-,N/A,,Clear,90,2013-01-22 13:55:00
8:15 AM,37.4,26.6,65,30.35,10.0,East,8.1,-,N/A,,Clear,100,2013-01-22 14:15:00
8:35 AM,39.2,26.6,61,30.35,10.0,East,6.9,-,N/A,,Clear,100,2013-01-22 14:35:00
8:55 AM,39.2,26.6,61,30.36,10.0,East,6.9,-,N/A,,Clear,90,2013-01-22 14:55:00
9:15 AM,42.8,26.6,53,30.36,10.0,East,5.8,-,N/A,,Clear,100,2013-01-22 15:15:00
9:35 AM,42.8,26.6,53,30.36,10.0,East,6.9,-,N/A,,Clear,80,2013-01-22 15:35:00
9:55 AM,44.6,28.4,53,30.37,10.0,East,8.1,-,N/A,,Clear,80,2013-01-22 15:55:00
10:15 AM,46.4,28.4,50,30.37,10.0,East,3.5,-,N/A,,Clear,90,2013-01-22 16:15:00
10:35 AM,48.2,28.4,46,30.37,10.0,ESE,6.9,-,N/A,,Clear,120,2013-01-22 16:35:00
10:55 AM,50.0,28.4,43,30.37,10.0,East,5.8,-,N/A,,Clear,100,2013-01-22 16:55:00
11:15 AM,51.8,28.4,41,30.36,10.0,Calm,Calm,-,N/A,,Clear,0,2013-01-22 17:15:00
11:35 AM,53.6,30.2,41,30.35,10.0,Calm,Calm,-,N/A,,Clear,0,2013-01-22 17:35:00
11:55 AM,53.6,30.2,41,30.34,10.0,Calm,Calm,-,N/A,,Scattered Clouds,0,2013-01-22 17:55:00
12:15 PM,55.4,33.8,44,30.33,10.0,Calm,Calm,-,N/A,,Scattered Clouds,0,2013-01-22 18:15:00
12:35 PM,-9999,-9999,N/A,30.30,10.0,Calm,Calm,-,N/A,,Clear,0,2013-01-22 18:35:00
12:55 PM,57.2,24.8,29,30.31,10.0,Calm,Calm,-,N/A,,Clear,0,2013-01-22 18:55:00
1:15 PM,57.2,33.8,41,30.30,10.0,ESE,3.5,-,N/A,,Clear,120,2013-01-22 19:15:00
1:35 PM,57.2,35.6,44,30.29,10.0,NE,3.5,-,N/A,,Clear,40,2013-01-22 19:35:00
1:55 PM,60.8,37.4,42,30.28,10.0,WSW,5.8,-,N/A,,Clear,250,2013-01-22 19:55:00
2:15 PM,60.8,35.6,39,30.28,10.0,SSW,3.5,-,N/A,,Clear,210,2013-01-22 20:15:00
2:35 PM,60.8,33.8,36,30.28,10.0,WNW,4.6,-,N/A,,Clear,290,2013-01-22 20:35:00
2:55 PM,60.8,33.8,36,30.28,10.0,North,4.6,-,N/A,,Mostly Cloudy,350,2013-01-22 20:55:00
3:15 PM,59.0,33.8,39,30.28,10.0,NNW,6.9,-,N/A,,Overcast,340,2013-01-22 21:15:00
3:35 PM,57.2,33.8,41,30.28,10.0,Calm,Calm,-,N/A,,Overcast,0,2013-01-22 21:35:00
3:55 PM,59.0,33.8,39,30.28,10.0,Calm,Calm,-,N/A,,Overcast,0,2013-01-22 21:55:00
4:15 PM,59.0,35.6,42,30.28,10.0,Calm,Calm,-,N/A,,Mostly Cloudy,0,2013-01-22 22:15:00
4:35 PM,57.2,35.6,44,30.28,10.0,North,4.6,-,N/A,,Mostly Cloudy,350,2013-01-22 22:35:00
4:55 PM,57.2,35.6,44,30.29,10.0,North,3.5,-,N/A,,Overcast,350,2013-01-22 22:55:00
5:15 PM,55.4,35.6,47,30.29,10.0,North,8.1,-,N/A,,Scattered Clouds,350,2013-01-22 23:15:00
5:35 PM,55.4,33.8,44,30.29,10.0,NNW,3.5,-,N/A,,Partly Cloudy,330,2013-01-22 23:35:00
5:55 PM,53.6,35.6,51,30.29,10.0,Calm,Calm,-,N/A,,Clear,0,2013-01-22 23:55:00
6:15 PM,51.8,33.8,50,30.29,10.0,Calm,Calm,-,N/A,,Clear,0,2013-01-23 00:15:00
6:35 PM,51.8,35.6,54,30.29,10.0,North,3.5,-,N/A,,Clear,10,2013-01-23 00:35:00
6:55 PM,48.2,37.4,66,30.29,10.0,NNE,3.5,-,N/A,,Mostly Cloudy,30,2013-01-23 00:55:00
7:15 PM,48.2,35.6,62,30.30,10.0,Calm,Calm,-,N/A,,Mostly Cloudy,0,2013-01-23 01:15:00
7:35 PM,48.2,35.6,62,30.30,10.0,Calm,Calm,-,N/A,,Mostly Cloudy,0,2013-01-23 01:35:00
7:55 PM,48.2,37.4,66,30.31,10.0,Calm,Calm,-,N/A,,Mostly Cloudy,0,2013-01-23 01:55:00
8:15 PM,46.4,35.6,66,30.31,10.0,Calm,Calm,-,N/A,,Mostly Cloudy,0,2013-01-23 02:15:00
8:35 PM,46.4,35.6,66,30.31,10.0,Calm,Calm,-,N/A,,Scattered Clouds,0,2013-01-23 02:35:00
8:55 PM,46.4,37.4,71,30.31,10.0,Calm,Calm,-,N/A,,Clear,0,2013-01-23 02:55:00
9:15 PM,44.6,37.4,76,30.31,10.0,Calm,Calm,-,N/A,,Clear,0,2013-01-23 03:15:00
9:35 PM,44.6,37.4,76,30.30,10.0,Calm,Calm,-,N/A,,Clear,0,2013-01-23 03:35:00
9:55 PM,42.8,35.6,76,30.30,10.0,Calm,Calm,-,N/A,,Clear,0,2013-01-23 03:55:00
10:15 PM,46.4,37.4,71,30.30,10.0,Calm,Calm,-,N/A,,Clear,0,2013-01-23 04:15:00
10:55 PM,42.8,35.6,76,30.31,10.0,SSE,3.5,-,N/A,,Clear,150,2013-01-23 04:55:00
11:15 PM,42.8,37.4,81,30.31,10.0,SE,3.5,-,N/A,,Clear,140,2013-01-23 05:15:00
11:35 PM,44.6,37.4,76,30.31,10.0,SSE,3.5,-,N/A,,Clear,150,2013-01-23 05:35:00
11:55 PM,44.6,37.4,76,30.31,10.0,SSE,5.8,-,N/A,,Clear,150,2013-01-23 05:55:00